Regional Weather Roundup
Issued by NWS

Home | Current Version | Previous Version | Graphics & Text | Print | Product List | Glossary On
Versions: 1 2 3 4 5 6 7 8 9 10 11 12 13 14 15 16 17 18 19 20 21 22 23 24 25 26 27 28 29 30 31 32 33 34 35 36 37 38 39 40 41 42 43 44 45 46 47 48 49 50
000
ASUS43 KBIS 211720
RWRND

NORTH DAKOTA REGIONAL WEATHER ROUNDUP
NATIONAL WEATHER SERVICE BISMARCK ND
1100 AM CST SUN DEC 21 2014

NOTE: "FAIR" INDICATES FEW OR NO CLOUDS BELOW 12,000 FEET WITH NO
SIGNIFICANT WEATHER AND/OR OBSTRUCTIONS TO VISIBILITY.


NDZ001>003-009>011-017-211800-
NORTHWEST NORTH DAKOTA

CITY           SKY/WX    TMP DP  RH WIND       PRES   REMARKS
WILLISTON      CLOUDY    24  21  88 CALM      29.42F
MINOT          PTSUNNY   23  19  85 CALM      29.49F
MINOT AFB      SUNNY     20  20  98 E7        29.49  WCI  12
$$

NDZ018>021-031>035-040>046-211800-
SOUTHWEST NORTH DAKOTA

CITY           SKY/WX    TMP DP  RH WIND       PRES   REMARKS
BISMARCK       SUNNY     29  27  92 SE7       29.54F
DICKINSON      SUNNY     34  27  75 S14       29.41F
GARRISON         N/A     28  26  92 CALM      29.50F
HETTINGER ARPT SUNNY     33  27  78 SE5       29.47F
$$

NDZ004>008-012>016-024-026-027-054-211800-
NORTHEAST NORTH DAKOTA

CITY           SKY/WX    TMP DP  RH WIND       PRES   REMARKS
GRAND FORKS    CLOUDY    31  29  92 S17       29.68S WCI  19
GRND FRKS AFB  CLOUDY    30  30 100 S15       29.66F WCI  19
DEVILS LAKE    CLOUDY    21  16  79 SE12      29.58S WCI   9
$$

NDZ022-023-025-028>030-036>039-047>053-211800-
SOUTHEAST NORTH DAKOTA

CITY           SKY/WX    TMP DP  RH WIND       PRES   REMARKS
FARGO          CLOUDY    33  29  85 S14G24    29.69F FOG
JAMESTOWN      FOG       30  27  88 SE14      29.60F VSB 1/2 WCI  19
$$



USA.gov is the U.S. government's official web portal to all federal, state and local government web resources and services.